CST,Max TemperatureF,Mean TemperatureF,Min TemperatureF,Max Dew PointF,MeanDew PointF,Min DewpointF,Max Humidity, Mean Humidity, Min Humidity, Max Sea Level PressureIn, Mean Sea Level PressureIn, Min Sea Level PressureIn, Max VisibilityMiles, Mean VisibilityMiles, Min VisibilityMiles, Max Wind SpeedMPH, Mean Wind SpeedMPH, Max Gust SpeedMPH,PrecipitationIn, CloudCover, Events, WindDirDegrees
2012-11-1,86,72,59,59,52,41,77,51,20,30.10,30.04,29.99,10,10,10,9,6,16,0.00,0,,226
2012-11-2,82,72,62,63,57,50,94,62,32,30.07,30.01,29.95,10,10,10,12,7,18,0.00,1,,191
2012-11-3,82,73,64,64,61,55,94,74,39,30.12,30.06,30.01,10,9,0,10,5,18,0.00,3,Fog,164
2012-11-4,78,68,59,61,57,54,94,70,42,30.15,30.10,30.07,10,10,10,7,3,,0.00,0,,355
2012-11-5,82,71,60,61,53,37,82,57,35,30.12,30.06,29.98,10,10,10,13,5,17,0.00,0,,297
2012-11-6,77,64,51,43,37,34,51,37,22,30.21,30.14,30.10,10,10,10,9,5,,0.00,0,,42
2012-11-7,78,66,53,46,42,39,62,40,24,30.21,30.14,30.08,10,10,10,9,6,,0.00,0,,112
2012-11-8,80,71,62,59,53,45,82,58,28,30.15,30.08,30.02,10,10,10,18,9,29,0.00,0,,177
2012-11-9,80,71,62,63,58,52,94,68,39,30.10,30.04,29.98,10,10,7,21,11,38,0.00,3,,169
2012-11-10,80,71,62,63,60,54,94,70,42,30.05,29.97,29.89,10,10,5,22,11,33,0.00,5,,165
2012-11-11,80,70,60,63,50,18,78,53,19,30.21,29.97,29.86,10,10,10,22,13,33,0.00,6,,226
2012-11-12,60,50,39,41,27,19,76,45,20,30.48,30.40,30.22,10,10,7,14,10,24,0.00,2,,22
2012-11-13,55,47,39,32,26,21,61,44,28,30.49,30.40,30.32,10,10,10,12,7,18,0.00,4,,72
2012-11-14,64,53,42,32,29,23,66,42,26,30.43,30.34,30.27,10,10,10,7,3,,0.00,1,,73
2012-11-15,60,52,44,37,33,28,61,45,34,30.32,30.27,30.22,10,10,10,7,2,,0.00,6,,121
2012-11-16,66,56,46,37,32,27,62,43,24,30.39,30.33,30.29,10,10,10,12,6,17,0.00,1,,55
2012-11-17,68,55,42,34,30,27,53,41,23,30.40,30.32,30.28,10,10,10,7,4,,0.00,0,,98
2012-11-18,71,60,50,52,44,34,82,57,33,30.30,30.25,30.18,10,10,10,12,5,17,0.00,1,,149
2012-11-19,69,62,55,55,52,50,88,70,56,30.27,30.21,30.15,10,10,10,12,6,16,0.00,4,,176
2012-11-20,78,66,55,55,53,46,94,60,32,30.23,30.18,30.13,10,10,10,9,6,,0.00,0,,212
2012-11-21,78,69,60,55,52,45,82,57,30,30.28,30.21,30.17,10,10,10,8,4,,0.00,0,,181
2012-11-22,77,68,59,55,53,50,88,64,41,30.17,30.13,30.06,10,10,10,17,8,24,0.00,1,,187
2012-11-23,66,60,53,59,44,23,94,58,23,30.38,30.29,30.15,10,10,10,17,8,31,0.00,5,,351
2012-11-24,62,52,42,25,22,18,49,33,19,30.42,30.30,30.14,10,10,10,13,6,17,0.00,1,,75
2012-11-25,75,63,51,59,43,23,88,52,30,30.14,30.02,29.93,10,10,10,16,10,25,0.00,1,,190
2012-11-26,84,70,55,61,55,41,94,65,33,30.25,30.00,29.93,10,10,10,16,9,28,0.00,4,Rain-Thunderstorm,218
2012-11-27,55,48,42,43,36,32,81,63,47,30.40,30.34,30.25,10,10,10,16,8,24,0.00,4,,11
2012-11-28,64,50,37,43,40,36,93,67,42,30.44,30.34,30.29,10,10,4,7,3,,0.00,0,,136
2012-11-29,68,57,46,54,48,41,93,69,52,30.28,30.20,30.13,10,10,7,10,7,16,0.00,3,,179
2012-11-30,75,68,60,61,58,55,94,76,53,30.19,30.12,30.06,10,10,7,13,7,20,0.00,5,,187